GEFSMW_500_meanwind_168.txt.gz
Wind_Speed
13 14 14 14 14 13 13 11 12 12 13 13 14 14 13 14 14 14 13 12 12 11 9 9 8 7 6 5 4 3 3 3 3 2 2 2 1 1 1 1 1 1 1
13 13 14 14 14 13 12 12 11 12 13 13 14 15 15 15 15 15 14 13 13 12 11 10 10 9 7 6 5 4 4 4 3 3 2 2 2 1 1 1 1 1 1
13 14 14 14 14 13 13 12 12 13 13 14 14 16 15 15 15 15 14 14 14 13 12 12 12 10 9 7 6 6 5 5 4 4 3 3 3 2 1 1 1 1 1
14 15 14 14 13 11 12 13 13 14 14 14 14 15 15 15 15 16 15 15 15 14 14 13 13 12 11 9 7 7 7 6 5 5 4 4 3 3 2 1 1 1 2
15 14 14 15 14 12 11 12 13 14 14 14 15 16 16 16 17 17 17 16 16 15 15 15 14 13 12 10 9 8 8 7 6 5 5 5 4 4 3 2 2 2 2
14 14 14 14 14 13 13 13 15 15 15 16 16 17 17 17 17 17 18 17 17 17 16 16 15 14 13 12 11 10 9 9 8 7 6 6 5 5 4 4 4 3 3
14 13 13 14 14 14 15 15 16 16 16 17 17 17 17 17 17 17 18 19 18 18 17 17 17 16 14 13 12 12 11 10 9 8 8 7 6 6 6 6 5 5 4
14 14 15 16 16 15 15 16 17 17 17 17 18 18 18 18 18 18 18 19 20 19 18 19 18 17 16 15 14 13 13 12 11 10 9 9 8 7 7 7 7 6 6
14 13 14 16 16 15 14 15 15 16 17 18 19 19 19 19 19 19 19 19 20 20 19 19 18 17 17 17 16 15 14 13 13 12 11 10 9 9 9 9 8 8 7
14 14 15 16 17 17 15 16 16 18 18 19 19 19 19 20 20 19 19 20 20 20 20 19 18 18 18 18 17 16 15 14 14 13 12 11 10 10 10 10 10 9 9
14 15 15 16 16 17 16 16 16 17 18 18 19 19 19 19 19 20 19 21 21 21 22 21 20 19 19 19 19 17 17 16 15 14 13 12 12 11 11 11 11 11 11
14 15 15 15 15 15 15 15 16 16 18 19 19 19 19 19 19 20 20 21 22 22 21 22 22 21 20 20 19 19 18 17 16 15 15 14 13 13 13 13 13 12 12
12 13 14 14 13 13 14 15 16 17 19 19 18 18 18 18 18 19 19 21 22 22 22 22 21 21 21 20 20 20 20 19 18 17 16 15 15 14 14 14 14 13 14
12 12 12 12 12 12 13 14 15 16 17 18 17 17 17 17 18 18 20 20 21 22 21 21 21 22 22 21 21 21 21 20 20 19 18 17 17 16 16 16 16 16 17
13 13 12 13 13 13 13 14 15 15 16 17 17 17 18 18 18 18 19 20 20 21 22 22 22 22 22 22 23 23 22 21 21 21 20 19 19 19 18 18 19 19 20
13 13 12 13 13 12 12 13 14 15 16 17 17 18 18 18 18 19 20 20 21 21 22 23 23 23 22 22 22 23 24 23 23 22 22 21 21 21 21 21 21 22 22
14 13 13 12 13 12 12 13 12 13 15 16 17 17 18 18 19 19 19 19 20 21 21 23 23 23 23 22 22 24 25 25 24 24 24 24 24 24 24 24 24 24 25
16 15 14 13 12 12 12 12 13 14 14 15 16 16 16 18 18 18 19 19 19 20 20 20 21 22 23 23 23 24 25 26 26 26 26 27 26 26 26 26 27 28 28
15 15 14 13 13 13 13 13 13 14 15 15 16 17 17 17 17 18 18 18 19 19 20 20 21 22 23 24 24 25 26 28 28 28 28 28 28 28 28 29 30 30 32
16 16 16 15 14 15 15 14 14 14 15 16 16 17 17 17 17 18 18 19 19 20 20 21 21 21 22 23 24 25 25 27 29 29 29 30 30 31 31 31 32 32 33
16 16 16 16 16 16 16 16 16 16 17 17 17 17 17 17 18 19 19 19 19 20 21 21 21 22 22 24 25 25 25 27 28 29 30 31 32 33 33 32 33 34 35
17 17 17 17 16 16 16 17 18 18 18 19 18 18 18 19 19 20 20 20 20 20 21 21 21 22 24 25 26 27 27 28 29 30 31 32 34 34 34 34 35 36 37
17 18 18 18 17 18 18 19 19 20 20 20 20 20 20 20 20 21 21 22 21 21 22 22 22 24 25 26 27 28 28 29 30 31 32 34 35 36 36 37 37 38 40
18 18 18 18 18 18 18 18 19 19 20 21 21 22 23 22 22 22 21 21 21 22 23 23 24 25 26 26 27 28 30 31 31 32 33 35 36 36 37 38 40 41 41
18 18 18 18 19 19 19 19 19 19 19 20 21 22 23 23 23 23 23 22 22 23 23 23 24 25 26 26 27 28 30 31 32 33 34 35 36 37 38 39 40 41 43
18 17 17 18 19 19 20 21 21 21 21 21 22 22 22 23 24 24 24 24 24 24 24 24 25 26 27 27 28 29 31 32 33 34 35 35 36 37 39 40 41 41 43

GEFSMW_500_meanwind_174.txt.gz
Wind_Speed
14 13 13 13 13 14 15 14 14 14 14 15 15 17 17 16 16 15 14 13 12 11 10 10 9 8 8 7 6 6 5 5 4 4 3 3 2 2 2 2 2 2 2
14 14 13 14 14 15 15 15 16 15 14 15 16 17 17 16 16 16 15 14 13 12 12 11 11 10 9 8 7 6 6 5 5 5 4 3 3 2 2 2 2 2 2
15 15 15 15 15 15 15 15 15 15 15 16 16 17 17 17 16 16 16 16 15 14 13 13 12 11 10 8 8 7 6 5 6 5 4 4 4 3 3 3 3 2 2
15 15 15 15 15 15 15 13 13 14 15 16 16 16 17 17 17 16 16 15 15 15 14 13 12 11 10 10 9 9 8 7 7 6 6 5 5 4 3 3 3 3 2
15 15 15 15 15 15 14 14 13 13 15 16 16 16 17 18 18 17 16 16 15 15 14 14 13 12 11 11 10 10 10 9 8 7 7 6 6 5 5 4 3 3 3
16 15 15 15 15 15 15 14 12 13 15 16 16 16 17 18 18 18 17 16 16 16 16 15 14 13 13 12 12 12 11 10 10 9 8 8 7 6 6 5 4 4 4
17 17 17 16 16 15 15 14 13 13 14 16 16 16 17 17 18 18 18 17 16 16 16 16 15 14 14 13 13 13 12 12 11 10 10 9 8 8 7 6 5 5 5
17 17 17 16 16 15 15 14 13 13 14 15 16 16 17 17 18 18 18 17 16 17 17 16 16 15 14 14 14 14 13 13 13 12 11 11 10 9 9 8 7 7 7
17 17 16 16 16 16 16 16 15 14 14 15 16 16 17 18 18 19 19 18 17 17 16 16 16 16 15 15 15 15 14 14 13 13 13 12 11 10 10 9 9 8 8
16 17 16 16 16 16 16 16 16 15 15 15 16 17 18 18 18 18 18 19 19 18 18 18 17 17 17 16 16 16 15 15 14 14 14 14 13 12 11 11 10 10 9
16 16 16 16 16 16 16 17 17 17 16 16 16 17 18 18 19 18 18 19 19 18 19 19 19 19 19 18 17 17 17 16 16 15 15 15 14 14 13 12 12 11 11
16 16 15 15 15 16 16 17 17 17 17 17 17 17 17 18 18 19 20 20 20 19 19 20 21 21 20 20 19 18 18 18 17 17 16 16 16 15 14 14 13 13 13
17 16 16 15 15 16 17 18 17 17 17 17 17 18 18 18 19 19 19 20 20 20 20 20 22 22 22 21 20 20 19 19 19 18 18 18 17 16 16 15 15 15 15
17 16 15 15 15 15 16 16 15 16 17 18 19 19 19 19 19 19 19 20 20 20 20 21 22 22 22 22 22 21 21 21 20 20 20 19 19 18 18 17 17 17 17
17 16 15 15 15 15 15 15 15 16 17 17 19 20 19 19 19 19 19 19 19 19 20 20 20 22 22 22 22 22 22 22 22 22 21 21 20 20 20 19 19 20 20
17 17 16 15 15 15 14 15 15 15 16 16 17 18 18 18 19 19 19 19 19 19 20 21 21 21 21 22 23 24 23 23 23 22 22 22 22 22 22 23 23 23 23
18 18 17 16 15 15 14 14 15 15 16 17 17 18 17 17 18 18 18 18 19 19 19 20 20 21 22 22 24 24 24 24 24 24 24 24 24 24 24 25 25 25 26
18 18 17 16 15 15 15 14 14 15 16 16 17 18 18 18 18 18 18 18 19 19 19 19 20 21 22 22 23 23 23 24 24 24 24 25 25 26 26 26 26 27 28
19 19 18 17 16 16 15 15 15 15 15 16 16 17 18 18 18 18 18 18 18 19 20 20 21 21 21 21 22 22 23 22 23 24 24 25 26 27 28 28 29 30 30
20 20 19 18 17 17 16 16 15 15 15 15 16 17 17 18 18 18 18 19 18 19 19 19 19 20 21 21 21 21 22 22 23 24 26 27 28 29 30 31 31 32 33
21 21 20 19 18 17 17 16 15 15 15 16 16 16 17 18 18 17 18 18 18 18 18 19 19 20 21 21 21 22 23 24 25 26 27 28 29 30 30 31 32 33 34
21 21 20 19 19 18 17 16 16 16 16 16 16 17 17 17 17 17 17 17 17 18 19 19 20 20 20 21 22 23 24 25 26 26 27 28 29 29 30 30 32 34 35
19 19 19 19 18 18 18 18 18 17 17 17 17 17 17 17 17 17 18 18 19 19 19 19 20 21 22 23 24 24 25 26 27 27 29 29 29 30 30 31 33 34 36
19 19 19 18 18 18 18 18 18 18 18 17 17 17 18 18 19 19 19 20 20 20 20 21 21 22 23 24 25 25 26 27 28 29 30 30 31 32 33 34 35 36 37
19 19 19 19 19 18 18 18 18 18 18 18 18 19 19 20 20 20 20 20 21 22 22 23 23 24 25 26 26 27 27 28 27 29 30 31 32 33 34 34 35 36 37
19 19 19 19 19 19 18 18 18 19 19 19 20 20 20 20 21 21 21 22 23 23 24 25 25 25 26 27 28 28 28 28 29 30 30 31 31 32 33 34 35 37 37

GEFSMW_500_meanwind_180.txt.gz
Wind_Speed
13 12 12 12 12 12 12 12 12 13 13 13 13 13 12 13 13 13 13 12 11 10 10 9 9 8 7 6 6 6 5 4 4 3 3 3 2 1 1 2 2 2 2
14 13 13 13 12 12 13 13 13 13 13 13 13 13 13 13 14 14 15 13 12 12 11 10 9 9 8 8 7 6 6 5 5 4 4 3 2 2 1 1 1 1 2
15 14 14 13 13 13 13 13 14 14 14 14 14 13 13 13 13 13 14 13 13 13 12 11 10 10 9 8 7 7 6 5 5 5 4 3 3 2 2 1 1 1 1
16 16 14 14 14 14 14 14 14 14 14 14 13 13 13 13 13 14 13 13 13 13 13 12 11 10 10 9 8 7 7 7 6 5 5 4 3 3 3 2 2 2 1
17 16 15 14 15 14 14 13 14 13 13 13 13 13 13 12 12 13 12 12 12 12 12 12 11 10 10 9 8 8 8 8 7 7 6 6 5 4 4 3 3 3 2
17 15 15 14 14 14 14 13 13 12 12 12 12 12 12 13 13 13 13 13 12 12 12 13 12 11 10 10 10 10 9 9 9 8 8 7 6 6 5 5 4 4 3
17 16 15 14 14 14 13 13 12 12 12 12 12 11 11 13 13 13 13 14 14 13 14 14 12 12 11 12 11 11 11 11 10 10 9 8 8 7 7 6 6 6 5
19 17 15 14 13 13 13 12 12 12 12 12 12 11 12 12 13 13 13 14 14 14 14 15 13 13 13 13 13 12 12 12 12 11 10 10 9 8 8 8 8 8 7
19 18 16 14 14 14 14 13 13 13 13 12 11 11 11 12 13 14 14 14 14 14 15 15 14 14 14 13 13 13 12 12 12 11 11 11 10 10 10 10 9 9 9
20 18 16 15 15 14 14 14 14 13 13 12 12 11 12 12 13 14 14 14 15 15 15 15 15 14 14 14 13 13 13 13 13 13 12 12 13 12 12 12 12 11 11
20 20 18 16 15 15 14 14 14 14 13 13 12 12 12 13 13 14 14 14 14 15 14 14 15 15 15 15 14 14 14 14 14 14 14 14 14 14 14 14 14 13 13
20 19 18 16 16 15 15 15 14 14 14 14 13 13 12 13 13 14 14 15 15 15 15 15 15 16 16 16 16 15 15 15 15 15 15 15 16 16 15 15 14 14 14
19 19 19 17 16 16 16 15 15 15 15 15 14 14 13 13 14 15 15 15 15 16 16 16 16 16 17 18 17 17 16 16 16 16 16 16 17 17 17 16 15 16 16
19 19 18 17 16 16 17 16 15 15 15 15 15 15 15 15 16 15 15 15 15 16 17 17 18 17 18 18 18 18 18 18 18 18 18 18 18 18 17 17 17 17 17
19 19 19 17 17 17 17 16 16 15 14 14 14 15 16 16 17 17 16 16 16 16 16 17 17 17 18 18 19 19 19 19 20 20 20 20 19 19 19 19 19 19 19
19 19 18 17 17 17 16 16 15 15 14 14 15 16 17 17 17 17 17 17 17 16 16 16 18 18 18 18 19 20 20 19 20 22 21 21 20 21 21 21 21 22 22
20 19 19 18 18 17 16 16 15 15 14 14 15 15 16 17 17 17 17 17 16 16 16 16 18 19 19 18 19 20 20 20 21 21 21 21 22 22 23 23 23 24 25
20 20 19 18 18 17 17 16 16 15 14 15 14 14 15 15 16 17 17 17 17 17 18 18 17 18 19 19 19 20 20 20 19 20 21 22 22 23 24 24 25 25 26
20 20 20 19 18 18 17 17 15 15 15 14 14 14 15 15 15 16 17 17 18 18 17 16 17 18 18 18 19 19 19 20 20 21 21 22 23 23 24 25 26 27 27
21 20 20 19 18 18 17 16 16 15 14 14 15 15 15 16 16 16 16 17 17 17 18 17 17 17 17 18 18 18 19 19 20 21 21 22 22 23 24 25 26 27 28
21 21 20 19 18 18 18 17 16 16 15 15 15 15 15 16 16 16 17 17 17 18 18 17 17 17 17 17 18 18 19 19 20 21 22 23 23 24 25 26 27 28 30
20 20 20 19 19 18 18 17 17 16 16 16 15 15 15 15 16 17 17 18 18 18 18 18 18 19 19 18 18 18 19 20 21 22 23 24 25 26 27 28 29 30 32
20 20 20 20 19 19 18 18 18 17 17 17 16 15 15 15 15 16 17 17 18 18 18 18 19 19 19 19 20 20 21 21 22 23 25 26 27 28 29 30 31 33 34
20 20 21 20 20 20 19 18 18 18 18 17 17 16 16 16 16 16 17 17 18 19 19 19 20 20 21 21 21 21 22 23 24 25 26 27 28 29 29 30 32 33 33
21 21 20 20 20 20 19 19 19 19 18 18 17 17 17 17 17 17 17 18 19 19 20 21 22 22 22 22 23 24 24 25 26 27 28 28 30 31 31 31 33 34 34
21 21 21 20 20 20 20 19 19 18 18 18 18 18 18 18 18 18 19 20 20 21 22 23 23 24 24 24 25 25 26 27 27 28 28 29 30 31 32 32 34 35 36

GEFSMW_500_meanwind_186.txt.gz
Wind_Speed
9 8 7 8 7 7 7 7 7 8 7 6 6 6 5 5 6 7 7 7 7 7 6 6 5 4 4 3 3 3 3 3 3 3 2 2 2 1 1 1 1 1 1
9 9 9 8 8 8 8 8 8 8 8 8 7 7 6 6 6 7 7 8 8 8 7 7 6 5 4 4 4 3 3 3 4 4 3 3 3 2 2 2 2 2 2
10 10 9 9 9 9 8 8 9 9 9 8 8 8 7 7 6 7 8 9 9 9 9 9 8 7 6 5 4 4 4 4 4 4 3 3 4 4 3 3 3 3 3
11 10 9 9 10 9 9 9 10 9 9 8 8 7 7 7 7 8 9 10 10 10 10 10 9 8 7 6 5 5 5 5 5 5 4 4 4 5 5 5 4 4 4
12 11 9 9 9 10 10 10 10 10 9 9 8 8 7 7 8 9 9 10 10 11 11 10 10 9 8 8 7 6 6 6 6 6 6 5 5 6 6 6 5 5 5
12 11 9 8 9 10 9 9 10 9 9 9 9 8 8 7 7 8 9 10 10 11 11 11 10 10 9 8 8 7 7 7 7 8 8 7 7 6 7 7 7 7 7
12 11 10 9 9 9 9 9 9 9 9 9 9 8 8 8 8 8 9 10 11 11 11 12 12 11 11 10 9 9 8 8 8 8 9 8 8 8 8 8 8 8 8
12 10 10 10 10 9 9 9 9 10 9 9 9 8 9 9 9 10 10 10 12 12 12 13 13 12 12 12 11 10 10 9 10 10 10 10 10 9 9 10 9 9 9
12 10 11 11 10 10 10 9 9 9 9 9 8 8 8 8 9 11 11 11 12 12 12 13 13 14 14 14 13 13 12 12 11 11 11 11 11 11 10 11 11 11 11
12 11 12 12 11 11 10 10 9 9 9 8 8 7 8 8 8 9 11 11 12 12 13 13 14 14 15 14 14 14 13 12 12 12 12 13 13 13 12 12 12 12 12
12 12 13 12 11 11 10 10 10 9 9 8 8 8 8 9 9 10 11 12 13 13 13 14 14 15 15 15 15 14 15 14 14 13 14 14 14 14 14 14 14 14 14
12 12 12 12 11 12 11 11 11 10 10 10 10 10 9 9 9 10 11 12 12 13 14 14 14 15 17 16 16 16 16 16 16 15 15 15 15 15 15 15 16 16 16
12 12 11 12 12 12 13 13 13 12 11 12 12 11 12 11 10 11 12 13 13 13 13 14 15 15 16 17 17 17 17 18 17 17 16 16 16 16 16 16 17 17 17
13 13 12 12 12 13 14 13 13 13 13 13 13 13 13 12 12 12 12 13 14 14 14 15 16 16 16 17 17 17 18 18 18 18 18 17 18 18 18 17 18 18 18
14 13 12 12 13 13 14 13 13 14 14 14 14 13 14 14 13 13 14 14 14 14 14 15 16 16 17 17 18 18 18 18 18 19 19 19 19 19 19 19 19 20 20
14 13 13 13 14 14 13 13 14 14 14 14 14 14 14 14 14 15 16 16 16 16 16 15 16 16 17 17 17 18 19 19 19 20 20 20 21 21 21 20 20 20 20
14 14 14 14 14 14 13 14 14 14 14 15 15 15 15 15 15 15 16 17 17 18 17 16 16 17 17 18 19 19 18 18 19 21 21 21 21 21 21 22 22 22 21
15 16 16 15 15 15 15 15 15 15 15 15 14 14 14 14 14 15 15 16 16 16 16 17 18 18 18 18 19 18 18 18 19 20 20 20 20 21 22 23 23 23 23
17 17 17 17 17 17 16 16 16 15 16 15 14 14 14 14 14 14 14 15 16 16 16 16 17 18 18 18 19 19 19 18 19 19 19 20 21 21 22 22 23 23 24
19 18 18 18 17 17 17 17 17 17 16 15 14 14 15 14 14 13 14 15 16 16 16 17 17 17 17 17 18 19 19 19 19 19 19 20 21 22 22 22 23 24 25
18 17 17 17 17 17 17 17 16 16 16 16 15 15 15 14 14 14 15 15 15 15 15 16 17 17 17 17 18 18 19 19 19 19 19 20 21 22 23 24 24 25 26
18 18 17 17 17 17 17 17 17 17 17 16 16 15 15 15 15 15 15 15 16 16 15 16 17 17 17 17 17 17 18 18 18 18 19 20 21 21 23 24 25 26 27
19 18 18 18 18 18 18 18 17 17 17 16 16 15 15 15 15 14 15 15 15 15 16 16 17 18 18 18 18 19 19 20 20 20 21 22 23 24 25 26 27 28 28
20 19 19 19 19 19 18 17 17 17 16 15 15 15 15 14 14 14 14 14 15 15 15 16 17 17 17 18 18 19 20 21 22 23 23 24 25 26 27 27 28 29 30
20 19 20 19 19 19 19 18 18 17 16 16 16 15 15 15 15 15 15 15 15 16 16 16 16 16 17 18 19 20 22 23 23 24 25 26 27 27 28 29 30 31 32
23 21 20 19 19 19 19 19 19 19 18 18 17 16 16 16 16 16 16 17 17 17 18 18 18 18 19 20 21 22 22 23 24 25 26 27 28 29 30 31 32 32 34